SCP
0 0 0 0 0 0 0 0 0 0 0 0 0 0 0 0 0 0 0 0 0 0 0 0 0 0 0
0 0 0 0 0 0 0 0 0 0 0 0 0 0 0 0 0 0 0 0 0 0 0 0 0 0 0
0 0 0 0 0 0 0 0 0 0 0 0 0 0 0 0 0 0 0 0 0 0 0 0 0 0 0
0 0 0 0 0 0 0 0 0 0 0 0 0 0 0 0 0 0 0 0 0 0 0 0 0 0 0
0 0 0 0 0 0 0 0 0 0 0 0 0 0 0 0 0 0 0 0 0 0 0 0 0 0 0
0 0 0 0 0 0 0 0 0 0 0 0 0 0 0 0 0 0 0 0 0 0 0 0 0 0 0
0 0 0 0 0 0 0 0 0 0 0 0 0 0 0 0 0 0 0 0 0 0 0 0 0 0 0
0 0 0 0 0 0 0 0 0 0 0 0 0 0 0 0 0 0 0 0 0 0 0 0 0 0 0
0 0 0 0 0 0 0 0 0 0 0 0 0 0 0 0 0 0 0 0 0 0 0 0 0 0 0
0 0 0 0 0 0 0 0 0 0 0 0 0 0 0 0 0 0 0 0 0 0 0 0 0 0 0
0 0 0 0 0 0 0 0 0 0 0 0 0 0 0 0 0 0 0 0 0 0 0 0 0 0 0
0 0 0 0 0 0 0 0 0 0 0 0 0 0 0 0 0 0 0 0 0 0 0 0 0 0 0
0 0 0 0 0 0 0 0 0 0 0 0 0 0 0 0 0 0 0 0 0 0 0 0 0 0 0
0 0 0 0 0 0 0 0 0 0 0 0 0 0 0 0 0 0 0 0 0 0 0 0 -0 -0 0
0 0 0 0 0 0 0 0 0 0 0 0 0 0 0 0 0 0 0 0 0 0 0 0 -0 -0 0
0 0 0 0 0 0 0 0 0 0 0 0 0 0 0 0 0 0 0 0 0 0 0 0 0 0 -0
Wind_Speed_500mb
21 20 20 22 25 26 27 26 26 27 27 27 28 32 34 34 36 36 37 40 41 43 42 42 44 46 49
22 20 21 22 21 22 24 24 25 25 25 27 28 28 29 33 36 39 42 44 45 45 46 47 46 48 52
23 23 24 25 23 21 20 21 24 26 28 28 28 30 31 29 31 36 43 48 48 51 50 48 51 52 53
23 24 24 23 24 26 27 27 25 25 29 32 35 36 35 36 34 33 36 42 48 53 55 55 49 53 57
26 24 22 21 23 24 27 27 27 27 29 31 34 38 40 41 40 40 38 37 41 49 54 58 55 54 52
28 26 25 26 27 28 28 29 29 31 34 36 38 39 39 41 43 44 43 42 42 42 48 54 58 59 63
28 26 25 27 29 30 32 34 37 39 41 42 43 41 39 40 42 44 44 44 45 46 46 49 55 59 63
30 29 28 29 29 30 33 37 40 42 45 47 47 43 39 37 38 39 40 42 43 44 48 49 52 57 62
35 32 31 32 33 35 37 38 42 45 48 49 47 42 38 36 35 35 36 38 41 42 44 45 49 53 58
36 33 32 33 34 36 38 41 43 47 50 48 42 36 35 35 36 37 39 41 42 45 49 50 52 52 55
34 32 32 33 34 37 38 42 46 46 43 40 37 32 31 33 34 38 40 43 48 53 52 54 56 59 60
33 32 32 31 33 35 40 43 43 39 34 30 27 29 31 32 31 32 37 39 47 55 58 62 63 64 63
32 31 30 30 32 36 38 35 30 28 27 26 27 27 28 31 34 36 38 40 45 46 55 63 67 62 53
30 30 32 35 36 35 28 26 26 26 31 33 32 31 31 34 30 29 30 31 35 35 40 50 35 63 23
33 33 36 37 36 31 28 26 27 30 30 30 30 31 32 36 36 31 29 24 35 35 25 20 21 18 65
37 37 38 35 31 28 27 25 25 25 27 28 28 31 32 33 35 35 29 31 34 43 42 35 42 53 43
Wind_Direction_500mb
260 270 281 290 297 300 300 301 300 298 293 287 279 275 274 268 260 254 258 258 256 254 252 250 250 247 246
254 274 291 298 299 297 298 299 301 305 304 300 295 289 280 275 268 260 255 252 256 258 257 254 250 248 248
259 275 286 293 297 302 304 302 300 300 300 300 298 296 293 285 275 268 261 258 254 254 258 258 254 250 248
261 271 281 288 297 303 306 306 306 305 304 303 301 296 293 292 289 280 270 264 259 257 254 257 259 256 251
260 272 277 288 299 306 307 309 312 315 315 312 307 301 295 289 286 284 280 274 266 263 260 256 254 254 261
261 272 285 298 308 310 308 308 310 311 314 315 312 307 300 292 286 284 282 279 273 267 264 261 257 252 247
260 270 279 292 301 303 302 304 307 310 312 314 315 310 302 293 288 285 283 281 278 274 269 266 262 258 252
258 262 273 283 291 295 297 299 302 307 310 313 314 310 303 294 289 289 290 288 284 280 275 271 265 263 261
258 262 270 282 292 297 302 304 305 307 309 311 309 306 302 298 294 290 286 285 287 289 287 283 280 273 265
261 266 278 287 293 296 299 304 306 308 309 307 304 302 300 299 298 299 299 297 293 290 288 285 282 280 279
262 270 279 288 293 297 304 305 305 305 302 300 301 300 295 294 296 298 299 301 303 301 294 287 286 284 281
270 277 284 289 295 300 301 300 300 299 298 298 297 294 295 299 299 298 298 296 297 301 299 296 291 287 288
275 282 288 289 291 294 297 297 295 295 298 303 303 305 299 296 298 296 293 291 293 301 308 304 298 298 289
278 284 287 291 293 294 290 286 293 299 304 309 308 303 304 303 301 296 298 297 299 306 315 319 323 312 280
279 283 286 289 291 288 283 285 287 289 293 296 302 309 310 311 313 314 309 301 298 293 290 293 319 290 308
280 284 287 288 284 281 286 287 287 292 294 299 302 302 305 307 308 305 298 283 281 289 291 277 257 271 295
Wind_Speed_850mb
21 20 20 22 25 26 27 26 26 27 27 27 28 32 34 34 36 36 37 40 41 43 42 42 44 46 49
22 20 21 22 21 22 24 24 25 25 25 27 28 28 29 33 36 39 42 44 45 45 46 47 46 48 52
23 23 24 25 23 21 20 21 24 26 28 28 28 30 31 29 31 36 43 48 48 51 50 48 51 52 53
23 24 24 23 24 26 27 27 25 25 29 32 35 36 35 36 34 33 36 42 48 53 55 55 49 53 57
26 24 22 21 23 24 27 27 27 27 29 31 34 38 40 41 40 40 38 37 41 49 54 58 55 54 52
28 26 25 26 27 28 28 29 29 31 34 36 38 39 39 41 43 44 43 42 42 42 48 54 58 59 63
28 26 25 27 29 30 32 34 37 39 41 42 43 41 39 40 42 44 44 44 45 46 46 49 55 59 63
30 29 28 29 29 30 33 37 40 42 45 47 47 43 39 37 38 39 40 42 43 44 48 49 52 57 62
35 32 31 32 33 35 37 38 42 45 48 49 47 42 38 36 35 35 36 38 41 42 44 45 49 53 58
36 33 32 33 34 36 38 41 43 47 50 48 42 36 35 35 36 37 39 41 42 45 49 50 52 52 55
34 32 32 33 34 37 38 42 46 46 43 40 37 32 31 33 34 38 40 43 48 53 52 54 56 59 60
33 32 32 31 33 35 40 43 43 39 34 30 27 29 31 32 31 32 37 39 47 55 58 62 63 64 63
32 31 30 30 32 36 38 35 30 28 27 26 27 27 28 31 34 36 38 40 45 46 55 63 67 62 53
30 30 32 35 36 35 28 26 26 26 31 33 32 31 31 34 30 29 30 31 35 35 40 50 35 63 23
33 33 36 37 36 31 28 26 27 30 30 30 30 31 32 36 36 31 29 24 35 35 25 20 21 18 65
37 37 38 35 31 28 27 25 25 25 27 28 28 31 32 33 35 35 29 31 34 43 42 35 42 53 43
Wind_Direction_850mb
260 270 281 290 297 300 300 301 300 298 293 287 279 275 274 268 260 254 258 258 256 254 252 250 250 247 246
254 274 291 298 299 297 298 299 301 305 304 300 295 289 280 275 268 260 255 252 256 258 257 254 250 248 248
259 275 286 293 297 302 304 302 300 300 300 300 298 296 293 285 275 268 261 258 254 254 258 258 254 250 248
261 271 281 288 297 303 306 306 306 305 304 303 301 296 293 292 289 280 270 264 259 257 254 257 259 256 251
260 272 277 288 299 306 307 309 312 315 315 312 307 301 295 289 286 284 280 274 266 263 260 256 254 254 261
261 272 285 298 308 310 308 308 310 311 314 315 312 307 300 292 286 284 282 279 273 267 264 261 257 252 247
260 270 279 292 301 303 302 304 307 310 312 314 315 310 302 293 288 285 283 281 278 274 269 266 262 258 252
258 262 273 283 291 295 297 299 302 307 310 313 314 310 303 294 289 289 290 288 284 280 275 271 265 263 261
258 262 270 282 292 297 302 304 305 307 309 311 309 306 302 298 294 290 286 285 287 289 287 283 280 273 265
261 266 278 287 293 296 299 304 306 308 309 307 304 302 300 299 298 299 299 297 293 290 288 285 282 280 279
262 270 279 288 293 297 304 305 305 305 302 300 301 300 295 294 296 298 299 301 303 301 294 287 286 284 281
270 277 284 289 295 300 301 300 300 299 298 298 297 294 295 299 299 298 298 296 297 301 299 296 291 287 288
275 282 288 289 291 294 297 297 295 295 298 303 303 305 299 296 298 296 293 291 293 301 308 304 298 298 289
278 284 287 291 293 294 290 286 293 299 304 309 308 303 304 303 301 296 298 297 299 306 315 319 323 312 280
279 283 286 289 291 288 283 285 287 289 293 296 302 309 310 311 313 314 309 301 298 293 290 293 319 290 308
280 284 287 288 284 281 286 287 287 292 294 299 302 302 305 307 308 305 298 283 281 289 291 277 257 271 295